Regional Weather Roundup
Issued by NWS Sioux Falls, SD

Home | Current Version | Previous Version | Text Only | Print | Product List | Glossary On
Versions: 1 2 3 4 5 6 7 8 9 10 11 12 13 14 15 16 17 18 19 20 21 22 23 24 25 26 27 28 29 30 31 32 33 34 35 36 37 38 39 40 41 42 43 44 45 46 47 48 49 50
753
ASUS43 KFSD 060102
RWRFSD

WEATHER ROUNDUP FOR SE SOUTH DAKOTA/SW MINNESOTA/NW IOWA
NATIONAL WEATHER SERVICE SIOUX FALLS SD
700 PM CST MON DEC 05 2016

NOTE: "FAIR" INDICATES FEW OR NO CLOUDS BELOW 12,000 FEET WITH NO
SIGNIFICANT WEATHER AND OR OBSTRUCTIONS TO VISIBILITY.


SDZ038>040-050-052>070-060200-
SOUTHEAST SOUTH DAKOTA

CITY           SKY/WX    TMP DP  RH WIND       PRES   REMARKS
BROOKINGS      CLOUDY    32  27  81 W28G37    29.58R WCI  18
CHAMBERLAIN    NOT AVBL
HURON          CLOUDY    29  22  75 NW29G43   29.70R WCI  14
MADISON        CLOUDY    30  30 100 W24G37    29.62R WCI  16
MITCHELL       CLOUDY    30  24  78 NW29G37   29.74R WCI  15
SIOUX FALLS    CLOUDY    35  29  78 W18G32    29.66R WCI  24
WINNER         MOCLDY    26  20  77 NW22G35   29.81R WCI  12
YANKTON        CLOUDY   N/A N/A N/A W20G32    29.75R
$$

MNZ071-072-080-081-089-090-097-098-060200-
SOUTHWEST MINNESOTA

CITY           SKY/WX    TMP DP  RH WIND       PRES   REMARKS
FAIRMONT       CLOUDY    41  37  86 S15       29.64R
JACKSON        PTCLDY    39  34  81 SW16      29.62R
LUVERNE        CLOUDY    34  30  86 W14G22    29.66R WCI  24
MARSHALL       MOCLDY    35  29  78 W17G30    29.58R WCI  25
MONTEVIDEO     MOCLDY    37  34  87 W16G25    29.55R
PIPESTONE      CLOUDY    34  28  80 W24G30    29.61R WCI  21
REDWOOD FALLS  CLOUDY    42  34  73 SW18G26   29.56R
TRACY          CLOUDY    38  33  80 W14G28    29.60R
WINDOM         PTCLDY    39  36  87 S15G22    29.59S
WORTHINGTON    MOCLDY    37  32  82 SW25G32   29.62R
$$

IAZ001>003-012>014-020>022-031-032-NEZ013-014-SDZ071-060200-
NORTHWEST IOWA

CITY           SKY/WX    TMP DP  RH WIND       PRES   REMARKS
CHEROKEE       CLOUDY    42  37  83 SW8       29.67R
DENISON        CLOUDY    45  37  76 S13       29.68R
ESTHERVILLE    PTCLDY    42  36  79 S18       29.63R
LE MARS        CLOUDY    39  32  75 W14G24    29.72R
ORANGE CITY    PTCLDY    37  34  87 W18G28    29.69R
SHELDON        CLOUDY    37  34  87 W22       29.65R
SIOUX CITY     CLOUDY    42  33  70 NW20G25   29.71R
SPENCER        MOCLDY    41  36  82 S20       29.65R
STORM LAKE     CLOUDY    43  37  81 S10       29.67R
$$

ABBREVIATIONS USED IN REMARKS
   TC - TEMPERATURE IN CELSIUS
  WCI - WIND CHILL INDEX
   HX - HEAT INDEX
  VSB - VISIBILITY





USA.gov is the U.S. government's official web portal to all federal, state and local government web resources and services.